Weather in Dukhovshchina

Russia / Smolensk Oblast     55°11′28″N   32°24′51″E
temp.,
°C
wind,
m/s
gust,
m/s
humid.,
%
clouds,
%
prec.,
mm/h
press.,
hPa
HPBL,
m
23 april, fri
fri2300:00+7s3108980 0.0 1011274
03:00+7wsw3596100 1.5 1010455
06:00+5sw3792100 2.5 1011729
09:00+6sw3679100 3.3 1011900
12:00+8sw5859100 0.1 10121659
15:00+9sw6850100 0.5 10122166
18:00+8wsw5755100 0.0 10121539
21:00+3sw247393 0.0 101392
24 april, sat
sat2400:00+2sw26826 0.0 1012168
03:000wsw26945 0.0 1011154
06:000wnw259792 0.0 1010165
09:00+3nw347276 0.0 1010903
12:00+6wnw455098 0.1 10101754
15:00+6wnw564690 0.1 10101848
18:00+6wnw57515 0.0 10111826
21:00+2w387698 0.0 1013224
25 april, sun
sun2500:00+1wsw398239 0.0 1012269
03:00−1wsw38905 0.0 1012228
06:00−1wsw398951 0.0 1012369
09:00+3w575966 0.0 10121297
12:00+4w6750100 0.2 10111903
15:00+5w5753100 0.5 10121907
18:00+4w4763100 0.4 10121269
21:00+1sw38835 0.6 1012198
26 april, mon
mon2600:00−1wsw39885 0.0 1013267
03:00−2wsw28925 0.0 1013217
06:00−2wsw289031 0.0 1013283
09:00+3wsw46617 0.0 10131019
12:00+5sw5748100 0.4 10111929
15:00+7wsw583699 0.5 10102630
18:00+6w454482 0.0 10091990
21:00+1wsw238199 0.1 101064
27 april, tue
tue2700:00−1wsw27937 0.0 1010158
03:00−1wsw279642 0.0 1010182
06:00−1wsw289651 0.0 1010312
09:00+2w5768100 0.0 10111071
12:00+3w5760100 0.0 10121297
15:00+4w465699 0.0 10121482
18:00+5w375158 0.0 10121633
21:00+1w24805 0.0 101379